Enontekio current weather conditions

sailwx.info

Wind at 1 knots

Air temperature -13.0° C
Visibility: greater than 5.4 NM
Dewpoint -15.0° C

Last reported at 2019-Dec-08 21:50 UTC.
Time now 2019-Dec-08 23:10 UTC

Location: N 68°22' E 023°26'.
View on Google Maps.

See reports from other nearby stations

  
Tides and Currents Weather Stations Pressure Air Temp Water Temp Dewpoint Dewpoint Depression Visibility Wind Speed Wind Dir Waves Ship Positions
date/time (UTC)wind fromknots sea level pressurealtimeterstation pressurevisibilityair tempwater tempwave heightnotes
2019-Dec-08 21:50 5.4-13.0
2019-Dec-08 21:20 340 5 5.4-14.0
2019-Dec-08 20:50 330 4 5.4-14.0
2019-Dec-08 20:20 5.4-12.0
2019-Dec-08 19:50 5.4-12.0
2019-Dec-08 19:20 350 6 5.4-11.0
2019-Dec-08 18:50 340 5 5.4-10.0
2019-Dec-08 18:20 340 6 5.4-9.0
2019-Dec-08 17:50 350 6 5.4-9.0
2019-Dec-08 17:20 5.4-8.0
2019-Dec-08 16:50 5.4-7.0 Light snow showers.
2019-Dec-08 16:20 330 4 5.4-8.0
2019-Dec-08 15:50 040 2 5.4-7.0
2019-Dec-08 15:20 360 5 5.4-7.0
2019-Dec-08 14:50 030 4 5.4-8.0 Light snow showers.
2019-Dec-08 14:20 190 0 5.4-10.0 Light snow showers.
2019-Dec-08 13:50 050 2 5.4-11.0 Light snow.
2019-Dec-08 13:20 350 0 5.4-11.0 Light snow.
2019-Dec-08 12:50 5.4-11.0 Light snow.
2019-Dec-08 12:20 230 4 5.4-11.0 Light snow showers.
2019-Dec-08 11:50 220 0 5.4-12.0 Light snow showers.
2019-Dec-08 11:20 5.4-13.0 Light snow showers.
2019-Dec-08 10:50 5.4-11.0 Light snow.
2019-Dec-08 10:20 5.4-10.0
2019-Dec-08 09:50 020 5 5.4-9.0
2019-Dec-08 09:20 350 5 5.4-9.0
2019-Dec-08 08:50 350 4 5.4-9.0
2019-Dec-08 08:20 360 4 5.4-9.0
2019-Dec-08 07:50 360 6 5.4-8.0 Light snow showers.
2019-Dec-08 07:20 010 6 5.4-9.0 Light snow showers.
2019-Dec-08 06:50 010 6 5.4-8.0 Light snow showers.
2019-Dec-08 06:20 360 9 5.4-8.0 Light snow.
2019-Dec-08 05:50 350 8 5.4-8.0
2019-Dec-08 05:20 360 7 5.4-8.0
2019-Dec-08 04:50 360 6 5.4-8.0
2019-Dec-08 04:20 350 6 5.4-8.0 Light snow showers.
2019-Dec-08 03:50 340 5 5.4-9.0 Light snow showers.
2019-Dec-08 03:20 350 4 5.4-9.0 Light snow showers.
2019-Dec-08 02:50 330 1 5.4-9.0 Light snow showers.
2019-Dec-08 01:50 5.4-9.0
2019-Dec-08 01:20 5.4-9.0
2019-Dec-08 00:50 5.4-9.0
2019-Dec-08 00:20 340 2 5.4-9.0
2019-Dec-07 23:50 340 4 5.4-9.0
2019-Dec-07 23:20 330 4 5.4-9.0
2019-Dec-07 22:50 5.4-9.0
2019-Dec-07 22:20 2.1-9.0 Mist.
2019-Dec-07 21:50 350 4 1.9-9.0 Mist.
2019-Dec-07 21:20 340 4 0.8-9.0 Patches of fog.
2019-Dec-07 20:50 340 4 1.1-9.0 Patches of fog.
2019-Dec-07 20:20 020 2 0.9-9.0 Patches of fog.
2019-Dec-07 19:50 1.1-9.0 Patches of fog.
2019-Dec-07 19:20 2.7-9.0 Mist.
2019-Dec-07 18:50 4.3-9.0
2019-Dec-07 18:20 020 2 1.7-9.0 Mist.
2019-Dec-07 17:50 1.1-9.0 Mist.
2019-Dec-07 17:20 0.5-9.0 Fog.
2019-Dec-07 16:50 0.6-9.0 Patches of fog.
2019-Dec-07 16:20 2.7-9.0
2019-Dec-07 15:50 060 2 3.8-9.0
2019-Dec-07 15:20 5.4-9.0
2019-Dec-07 14:50 5.4-9.0
2019-Dec-07 14:20 040 2 5.4-9.0 Light snow showers.
2019-Dec-07 13:50 040 2 5.4-9.0 Light snow showers.
2019-Dec-07 13:20 2.7-9.0
2019-Dec-07 12:50 1.2-9.0 Mist.
2019-Dec-07 12:20 2.1-9.0 Light snow showers.
2019-Dec-07 11:50 3.2-9.0 Light snow showers.
2019-Dec-07 11:20 1.6-9.0 Mist.
2019-Dec-07 10:50 1.3-9.0 Mist.
2019-Dec-07 10:20 1.1-9.0 Light snow. Mist.
2019-Dec-07 09:50 1.0-9.0 Light snow showers. Mist.
2019-Dec-07 09:20 0.8-9.0 Light snow showers.
2019-Dec-07 08:50 1.3-9.0 Light snow showers.
2019-Dec-07 08:20 1.2-10.0 Light snow showers.
2019-Dec-07 07:50 3.8-10.0
2019-Dec-07 07:20 4.3-10.0 Light snow showers.
2019-Dec-07 06:50 230 1 5.4-10.0
2019-Dec-07 06:20 5.4-10.0
2019-Dec-07 05:50 5.4-10.0 Light snow.
2019-Dec-07 05:20 220 2 5.4-10.0 Light snow.
2019-Dec-07 04:50 220 5 2.2-10.0 Light snow.
2019-Dec-07 04:20 2.1-9.0 Light snow.
2019-Dec-07 03:50 070 4 2.7-9.0 Light snow showers.
2019-Dec-07 03:20 060 5 5.4-9.0 Light snow showers.
2019-Dec-07 02:50 060 6 5.4-10.0 Light snow.
2019-Dec-07 02:20 2.7-12.0 Light snow.
2019-Dec-07 01:50 050 2 5.4-13.0 Light snow.
2019-Dec-07 01:20 5.4-14.0 Light snow.
2019-Dec-07 00:50 200 4 5.4-15.0 Light snow.
2019-Dec-07 00:20 5.4-15.0 Light snow showers.
2019-Dec-06 23:50 5.4-16.0 Light snow showers.
2019-Dec-06 23:20 5.4-16.0